This demonstration page uses our WeatherBlox Daily Observations layout. Learn more.

41.55636, -103.73856

Hourly Observations for August 25, 2019

Temp ( °F °C ) Dew Point ( °F °C ) Humidity (%) Winds ( mph kmh ) Pressure ( in mb ) Visibility ( mi km ) Precip ( " mm )
12:58 am 00:58 Clear 73 22.8 54 12.4 52 52 SE 8 13 29.86 1011 10 16.0934 0 0
1:58 am 01:58 Mostly Cloudy 71 21.8 56 13.4 59 59 SSE 13 20 29.86 1011 10 16.0934 0 0
2:58 am 02:58 Clear 69 20.8 55 12.5 59 59 S 14 22 29.86 1011 10 16.0934 0 0
3:58 am 03:58 Clear 69 20.5 54 12.1 59 59 SSW 15 24 29.86 1011 10 16.0934 0 0
4:58 am 04:58 Clear 66 18.8 54 12.2 66 66 SSW 13 20 29.85 1011 10 16.0934 0 0
5:58 am 05:58 Clear 65 18.6 53 11.4 63 63 SSW 16 26 29.83 1010 10 16.0934 0 0
6:59 am 06:59 Clear 65 18.3 54 12.4 69 69 SSW 18 30 29.81 1010 10 16.0934 0 0
7:58 am 07:58 Clear 65 18.2 55 12.9 71 71 SSW 17 28 29.78 1009 10 16.0934 0 0
8:58 am 08:58 Mostly Clear 64 17.8 55 12.8 73 73 SSW 15 24 29.76 1008 10 16.0934 0 0
9:58 am 09:58 Clear 59 15.2 54 12.2 82 82 W 3 6 29.76 1008 10 16.0934 0 0
10:58 am 10:58 Clear 61 15.9 53 11.7 76 76 SSW 9 15 29.75 1007 10 16.0934 0 0
11:58 am 11:58 Clear 58 14.6 50 9.8 73 73 SSW 7 11 29.77 1008 10 16.0934 0 0
12:58 pm 12:58 Sunny 60 15.3 48 9.1 67 67 WSW 5 7 29.8 1009 10 16.0934 0 0
1:58 pm 13:58 Sunny 64 17.5 47 8.1 54 54 WSW 3 6 29.8 1009 10 16.0934 0 0
2:58 pm 14:58 Sunny 69 20.7 48 9 47 47 NNW 6 9 29.79 1009 10 16.0934 0 0
3:58 pm 15:58 Sunny 75 23.9 48 9 39 39 NW 5 7 29.78 1009 10 16.0934 0 0
4:58 pm 16:58 Sunny 83 28.4 42 5.3 23 23 NW 15 24 29.77 1008 10 16.0934 0 0
5:58 pm 17:58 Sunny 84 29.1 53 11.5 34 34 NE 10 17 29.75 1007 10 16.0934 0 0
6:58 pm 18:58 Sunny 85 29.2 52 11.1 33 33 NNE 8 13 29.74 1007 10 16.0934 0 0
7:58 pm 19:58 Sunny 86 29.9 46 7.6 25 25 ENE 8 13 29.72 1006 10 16.0934 0 0
8:58 pm 20:58 Sunny 87 30.3 43 6.1 22 22 E 6 9 29.7 1006 10 16.0934 0 0
9:58 pm 21:58 Sunny 87 30.6 44 6.4 22 22 Calm 29.7 1006 10 16.0934 0 0
10:58 pm 22:58 Sunny 87 30.4 45 7 23 23 ESE 5 7 29.67 1005 10 16.0934 0 0
11:58 pm 23:58 Sunny 83 28.5 47 8.3 28 28 SE 6 9 29.67 1005 10 16.0934 0 0

Powered by AerisWeather